Location: Newark
(35.2672°N, 80.7344°W)
Time: 06:05:17
(UTC+00:00)

Transit 2A Rocket - Pass Details

Date: 27 January 2020
Orbit: 591 x 912 km, 66.7° (Epoch: 27 February)

Event Time Altitude Azimuth Distance (km) Brightness Sun altitude
Rises 09:20:10 0° 193° (SSW) 2,867 - -37.9°
Reaches altitude 10° 09:22:29 10° 188° (S) 1,941 - -37.5°
Maximum altitude 09:26:40 50° 113° (ESE) 753 - -36.6°
Drops below altitude 10° 09:30:49 10° 38° (NE) 1,925 - -35.8°
Exits shadow 09:31:25 - 36° (NE) 2,159 7.7 -35.6°
Sets 09:33:07 0° 33° (NNE) 2,842 8.4 -35.3°
